W0DXV Weather Reports


Display with metric or nautical units.
time (UTC)temp
F
wind
direction
speed
MPH
gust
MPH
rain 1hr
in
rain 24hr
in
rain mn
in
humidity
%
barometer
mb
20260504231318 73 248 0.0 1.0 0.00 0.00 0.00 36 1009.3
20260504230814 73 249 0.0 0.0 0.00 0.00 0.00 36 1009.2
20260504230312 74 249 0.0 0.0 0.00 0.00 0.00 37 1009.0
20260504225811 74 224 1.0 1.0 0.00 0.00 0.00 36 1009.2
20260504225306 74 221 0.0 0.0 0.00 0.00 0.00 38 1009.2
20260504224804 74 260 0.0 0.0 0.00 0.00 0.00 35 1009.3
20260504224301 74 260 0.0 0.0 0.00 0.00 0.00 34 1009.2
20260504223757 74 240 0.0 0.0 0.00 0.00 0.00 36 1009.2
20260504223253 74 251 0.0 1.0 0.00 0.00 0.00 37 1009.2
20260504222750 74 218 0.0 1.0 0.00 0.00 0.00 36 1009.1
20260504222247 75 241 0.0 0.0 0.00 0.00 0.00 40 1009.3
20260504221744 75 236 1.0 2.0 0.00 0.00 0.00 37 1009.2
20260504221236 75 272 1.0 1.0 0.00 0.00 0.00 33 1009.2
20260504220732 76 250 0.0 0.0 0.00 0.00 0.00 36 1009.4
20260504220230 75 222 2.0 2.0 0.00 0.00 0.00 34 1009.4
20260504215727 76 246 0.0 1.0 0.00 0.00 0.00 37 1009.4
20260504215223 76 259 0.0 0.0 0.00 0.00 0.00 33 1009.2
20260504214719 76 245 1.0 1.0 0.00 0.00 0.00 31 1009.3
20260504214216 76 242 1.0 1.0 0.00 0.00 0.00 38 1009.3
20260504213713 76 242 1.0 1.0 0.00 0.00 0.00 33 1009.5
20260504213209 76 230 2.0 2.0 0.00 0.00 0.00 34 1009.4
20260504212706 77 260 1.0 1.0 0.00 0.00 0.00 34 1009.3
20260504212203 77 229 1.0 1.0 0.00 0.00 0.00 33 1009.5
20260504211700 77 234 1.0 1.0 0.00 0.00 0.00 37 1009.5
20260504211156 77 223 0.0 0.0 0.00 0.00 0.00 34 1009.4
20260504210654 77 263 1.0 1.0 0.00 0.00 0.00 33 1009.3
20260504210150 77 245 0.0 1.0 0.00 0.00 0.00 34 1009.5
20260504205648 77 268 2.0 2.0 0.00 0.00 0.00 33 1009.4
20260504205145 78 228 2.0 2.0 0.00 0.00 0.00 35 1009.5
20260504204643 78 239 0.0 0.0 0.00 0.00 0.00 34 1009.6
20260504204142 78 230 2.0 2.0 0.00 0.00 0.00 34 1009.8
20260504203640 79 238 3.0 3.0 0.00 0.00 0.00 33 1009.7
20260504203137 80 266 1.0 1.0 0.00 0.00 0.00 33 1009.7
20260504202632 79 290 1.0 2.0 0.00 0.00 0.00 34 1009.8
20260504202129 79 233 3.0 3.0 0.00 0.00 0.00 34 1009.8
20260504201626 79 246 1.0 1.0 0.00 0.00 0.00 36 1010.0
20260504201124 79 278 1.0 2.0 0.00 0.00 0.00 33 1009.8
20260504200620 80 231 2.0 2.0 0.00 0.00 0.00 35 1010.0
20260504200117 81 25 1.0 1.0 0.00 0.00 0.00 35 1009.8
20260504195613 80 97 2.0 2.0 0.00 0.00 0.00 32 1010.0
20260504195109 79 236 2.0 2.0 0.00 0.00 0.00 35 1010.1
20260504194606 79 265 4.0 5.0 0.00 0.00 0.00 34 1010.3
20260504194102 80 239 1.0 1.0 0.00 0.00 0.00 33 1010.1
20260504193558 79 277 2.0 2.0 0.00 0.00 0.00 35 1010.2
20260504193057 80 336 1.0 2.0 0.00 0.00 0.00 34 1010.4
20260504192555 79 251 1.0 1.0 0.00 0.00 0.00 36 1010.4
20260504192053 80 66 2.0 3.0 0.00 0.00 0.00 34 1010.5
20260504191551 80 270 2.0 2.0 0.00 0.00 0.00 36 1010.7
20260504191046 80 140 0.0 1.0 0.00 0.00 0.00 32 1010.5
20260504190543 79 266 1.0 1.0 0.00 0.00 0.00 34 1010.7
20260504190039 79 242 2.0 2.0 0.00 0.00 0.00 34 1010.8
20260504185536 79 214 1.0 1.0 0.00 0.00 0.00 34 1010.9
20260504185033 79 120 3.0 3.0 0.00 0.00 0.00 32 1010.9
20260504184528 80 352 1.0 2.0 0.00 0.00 0.00 34 1010.9
20260504184023 80 232 1.0 1.0 0.00 0.00 0.00 35 1010.9
20260504183521 79 251 1.0 1.0 0.00 0.00 0.00 33 1011.0
20260504183019 78 289 1.0 2.0 0.00 0.00 0.00 33 1011.1
20260504182515 78 236 1.0 1.0 0.00 0.00 0.00 34 1011.2
20260504182013 78 188 1.0 1.0 0.00 0.00 0.00 32 1011.1
20260504181510 78 243 2.0 2.0 0.00 0.00 0.00 33 1011.3
20260504181009 78 240 2.0 2.0 0.00 0.00 0.00 34 1011.4
20260504180507 78 278 1.0 1.0 0.00 0.00 0.00 32 1011.0
20260504180005 79 233 1.0 1.0 0.00 0.00 0.00 33 1011.3
20260504175502 78 281 1.0 1.0 0.00 0.00 0.00 34 1011.3
20260504174959 77 263 1.0 1.0 0.00 0.00 0.00 33 1011.3
20260504174457 77 262 0.0 0.0 0.00 0.00 0.00 34 1011.2
20260504173954 77 281 1.0 2.0 0.00 0.00 0.00 37 1011.5
20260504173450 78 256 2.0 2.0 0.00 0.00 0.00 34 1011.4
20260504172948 76 259 1.0 1.0 0.00 0.00 0.00 33 1011.5
20260504172443 76 239 1.0 2.0 0.00 0.00 0.00 34 1011.6
20260504171940 76 269 1.0 1.0 0.00 0.00 0.00 38 1011.7
20260504171437 75 34 2.0 2.0 0.00 0.00 0.00 36 1011.4
20260504170934 76 34 5.0 5.0 0.00 0.00 0.00 35 1011.9
20260504170430 76 265 1.0 1.0 0.00 0.00 0.00 35 1011.9
20260504160349 75 61 2.0 3.0 0.00 0.00 0.00 37 1013.0
20260504150814 70 184 1.0 1.0 0.00 0.00 0.00 42 1013.4
20260504150311 70 275 1.0 1.0 0.00 0.00 0.00 44 1013.3
20260504141241 63 281 1.0 1.0 0.00 0.00 0.00 57 1013.1
20260504140737 64 47 2.0 2.0 0.00 0.00 0.00 59 1013.3
20260504140233 64 338 1.0 2.0 0.00 0.00 0.00 60 1013.3
20260504130702 57 231 0.0 0.0 0.00 0.00 0.00 71 1013.1
20260504130158 56 234 0.0 1.0 0.00 0.00 0.00 70 1013.2
20260504120122 49 252 0.0 0.0 0.00 0.00 0.00 84 1013.1
20260504110549 38 288 0.0 0.0 0.00 0.00 0.00 99 1013.0
20260504100511 38 288 0.0 0.0 0.00 0.00 0.00 98 1013.0
20260504081904 39 286 0.0 0.0 0.00 0.00 0.00 97 1012.7
20260504081401 40 286 0.0 0.0 0.00 0.00 0.00 97 1012.8
20260504080856 40 286 0.0 0.0 0.00 0.00 0.00 96 1012.9
20260504080354 40 286 0.0 0.0 0.00 0.00 0.00 96 1012.6
20260504070321 41 354 0.0 0.0 0.00 0.00 0.00 95 1012.7
20260504060242 42 354 0.0 0.0 0.00 0.00 0.00 94 1013.1
20260504050703 43 354 0.0 0.0 0.00 0.00 0.00 92 1013.0
20260504050200 43 354 0.0 0.0 0.00 0.00 0.00 92 1013.1
20260504045657 43 354 0.0 0.0 0.00 0.00 0.00 92 1012.9
20260504045152 43 355 0.0 0.0 0.00 0.00 0.00 92 1013.0
20260504044650 43 356 1.0 1.0 0.00 0.00 0.00 91 1012.9
20260504044147 44 231 0.0 0.0 0.00 0.00 0.00 91 1012.7
20260504043644 43 231 0.0 0.0 0.00 0.00 0.00 91 1012.8
20260504043141 44 231 0.0 0.0 0.00 0.00 0.00 91 1012.7
20260504042639 44 231 0.0 0.0 0.00 0.00 0.00 91 1012.9
20260504042135 44 231 0.0 0.0 0.00 0.00 0.00 90 1012.8
20260504041631 44 231 0.0 0.0 0.00 0.00 0.00 90 1012.8
20260504041127 44 231 0.0 0.0 0.00 0.00 0.00 90 1012.9
20260504040624 44 231 0.0 0.0 0.00 0.00 0.00 90 1012.8
20260504040121 44 231 0.0 0.0 0.00 0.00 0.00 90 1012.9
20260504035618 44 231 0.0 0.0 0.00 0.00 0.00 90 1013.0
20260504035114 44 231 0.0 0.0 0.00 0.00 0.00 89 1012.9
20260504034613 44 231 0.0 0.0 0.00 0.00 0.00 89 1012.8
20260504034109 44 231 0.0 0.0 0.00 0.00 0.00 89 1012.8
20260504033607 44 231 0.0 0.0 0.00 0.00 0.00 89 1013.0
20260504033104 45 231 0.0 0.0 0.00 0.00 0.00 88 1013.0
20260504032601 45 231 0.0 0.0 0.00 0.00 0.00 88 1013.1
20260504032058 45 231 0.0 0.0 0.00 0.00 0.00 88 1013.0
20260504031555 45 231 0.0 0.0 0.00 0.00 0.00 87 1013.1
20260504031051 45 231 0.0 0.0 0.00 0.00 0.00 87 1013.2
20260504030548 45 231 0.0 0.0 0.00 0.00 0.00 86 1013.0
20260504030044 45 231 0.0 0.0 0.00 0.00 0.00 86 1013.2
20260504025542 46 231 0.0 0.0 0.00 0.00 0.00 85 1013.3
20260504025038 46 231 0.0 0.0 0.00 0.00 0.00 85 1013.3
20260504024535 46 231 0.0 0.0 0.00 0.00 0.00 85 1013.2
20260504024032 46 231 0.0 0.0 0.00 0.00 0.00 85 1013.1
20260504023529 46 231 0.0 0.0 0.00 0.00 0.00 84 1013.2
20260504023025 47 231 0.0 0.0 0.00 0.00 0.00 84 1013.0
20260504022520 47 231 0.0 0.0 0.00 0.00 0.00 83 1013.2
20260504022017 47 231 0.0 0.0 0.00 0.00 0.00 83 1013.0
20260504021515 47 231 0.0 0.0 0.00 0.00 0.00 83 1012.8
20260504021012 47 231 0.0 0.0 0.00 0.00 0.00 82 1012.7
20260504020509 47 231 0.0 0.0 0.00 0.00 0.00 81 1012.7
20260504020005 48 231 0.0 0.0 0.00 0.00 0.00 80 1012.5
20260504015502 48 231 0.0 0.0 0.00 0.00 0.00 79 1012.5
20260504014957 48 231 0.0 0.0 0.00 0.00 0.00 79 1012.2
20260504014453 49 231 0.0 0.0 0.00 0.00 0.00 78 1012.2
20260504013950 49 231 0.0 0.0 0.00 0.00 0.00 77 1012.3
20260504013449 49 231 0.0 0.0 0.00 0.00 0.00 77 1012.3
20260504012944 50 231 0.0 0.0 0.00 0.00 0.00 75 1012.2
20260504012443 50 231 0.0 0.0 0.00 0.00 0.00 75 1012.1
20260504011941 50 231 0.0 0.0 0.00 0.00 0.00 74 1012.3
20260504011437 51 231 0.0 0.0 0.00 0.00 0.00 73 1012.1
20260504010933 51 231 0.0 0.0 0.00 0.00 0.00 73 1012.0
20260504010429 51 231 0.0 0.0 0.00 0.00 0.00 72 1012.0
20260504005925 52 231 0.0 0.0 0.00 0.00 0.00 71 1012.0
20260504005422 52 230 0.0 0.0 0.00 0.00 0.00 70 1011.8
20260504004919 53 230 0.0 0.0 0.00 0.00 0.00 68 1011.9
20260504004417 53 230 0.0 0.0 0.00 0.00 0.00 68 1012.0
20260504003914 54 230 0.0 0.0 0.00 0.00 0.00 66 1012.0
20260504003410 54 230 0.0 0.0 0.00 0.00 0.00 65 1011.8
20260504002907 55 230 0.0 0.0 0.00 0.00 0.00 62 1011.7
20260504002404 56 231 0.0 0.0 0.00 0.00 0.00 62 1011.5
20260504001901 56 230 0.0 0.0 0.00 0.00 0.00 60 1011.6
20260504001359 57 231 0.0 0.0 0.00 0.00 0.00 59 1011.5
20260504000855 58 231 0.0 0.0 0.00 0.00 0.00 55 1011.6
20260504000354 59 230 0.0 0.0 0.00 0.00 0.00 54 1011.4
20260503235850 60 230 0.0 0.0 0.00 0.00 0.00 52 1011.5
20260503235348 60 230 0.0 0.0 0.00 0.00 0.00 46 1011.4
20260503234844 61 230 0.0 0.0 0.00 0.00 0.00 43 1011.5
20260503234342 62 230 0.0 1.0 0.00 0.00 0.00 42 1011.4
20260503233840 62 230 0.0 0.0 0.00 0.00 0.00 41 1011.3
20260503233336 62 230 0.0 0.0 0.00 0.00 0.00 41 1011.5
20260503232832 62 230 0.0 0.0 0.00 0.00 0.00 39 1011.5
20260503232330 63 230 0.0 0.0 0.00 0.00 0.00 40 1011.4
20260503231827 63 231 0.0 0.0 0.00 0.00 0.00 39 1011.5